Andover, NJ

4:11 PM EST on November 21, 2019 (GMT -0500)
Andover

Weather History for K12N - September, 2019

Change the Weather History Date:

Sunday, September 22, 2019

  Actual Average (WUND) Record (WUND)
Temperature  
Mean Temperature 68 °F -  
Max Temperature 87 °F - - (-1)
Min Temperature 51 °F - - (-1)
Cooling Degree Days 4    
Growing Degree Days 18 (Base 50)    
Moisture  
Dew Point 60 °F    
Average Humidity 80    
Maximum Humidity 100    
Minimum Humidity 49    
Precipitation  
Precipitation 0.00 in - - ()
Sea Level Pressure  
Sea Level Pressure 30.11 in    
Wind  
Wind Speed 1 mph (SSW)    
Max Wind Speed 8 mph    
Max Gust Speed -    
Averages and records for this station are not official NWS values.
T = Trace of Precipitation, MM = Missing Value Source: NWS Daily Summary

Daily Weather History Graph

Daily Weather History Graph

Search for Another Location

Airport or City:

Astronomy

Sep. 22, 2019 Rise Set
Actual Time 6:46 AM EDT 6:56 PM EDT
Civil Twilight 6:18 AM EDT 7:23 PM EDT
Nautical Twilight 5:46 AM EDT 7:56 PM EDT
Astronomical Twilight 5:13 AM EDT 8:28 PM EDT
Moon No Moon Rise 2:52 PM EDT (9/22)
Length of Visible Light 13h 05m
Length of Day
12h 10m
Last Quarter, 44% of the Moon is Illuminated
Sep 22
Last Quarter
Sep 28
New
Oct 5
First Quarter
Oct 13
Full
Oct 21
Last Quarter

Hourly Weather History & Observations

Time (EDT) Temp. Heat Index Dew Point Humidity Pressure Visibility Wind Dir Wind Speed Gust Speed Precip Events Conditions
12:54 AM 55.9 °F - 54.0 °F 93% 30.18 in - Calm Calm - N/A   Unknown
1:54 AM 55.0 °F - 54.0 °F 96% 30.19 in - Calm Calm - N/A   Unknown
2:54 AM 53.1 °F - 52.0 °F 96% 30.17 in - Calm Calm - N/A   Unknown
3:54 AM 52.0 °F - 51.1 °F 97% 30.17 in - Calm Calm - N/A   Unknown
4:54 AM 52.0 °F - 50.0 °F 93% 30.17 in - Calm Calm - N/A   Unknown
5:54 AM 52.0 °F - 51.1 °F 97% 30.17 in - Calm Calm - N/A   Unknown
6:54 AM 51.1 °F - 50.0 °F 96% 30.18 in - Calm Calm - N/A   Unknown
7:54 AM 54.0 °F - 54.0 °F 100% 30.19 in - Calm Calm - N/A   Unknown
8:54 AM 61.0 °F - 59.0 °F 93% 30.19 in - Calm Calm - N/A   Unknown
9:54 AM 71.1 °F - 61.0 °F 70% 30.17 in - Calm Calm - N/A   Unknown
11:54 AM 81.0 °F 82.5 °F 64.0 °F 56% 30.13 in - SW 4.6 mph - N/A   Unknown
12:54 PM 84.0 °F 85.8 °F 64.9 °F 53% 30.12 in - Variable 3.5 mph - N/A   Unknown
1:54 PM 84.0 °F 85.8 °F 64.9 °F 53% 30.09 in - SSW 6.9 mph - N/A   Unknown
2:54 PM 84.9 °F 86.1 °F 64.0 °F 49% 30.06 in - SSW 8.1 mph - N/A   Unknown
3:54 PM 86.0 °F 87.6 °F 64.9 °F 49% 30.04 in - SSW 6.9 mph - N/A   Unknown
4:54 PM 84.9 °F 87.1 °F 66.0 °F 53% 30.03 in - SSW 6.9 mph - N/A   Unknown
5:54 PM 82.9 °F 85.0 °F 66.0 °F 56% 30.03 in - Calm Calm - N/A   Unknown
6:54 PM 73.9 °F - 69.1 °F 85% 30.03 in - Calm Calm - N/A   Unknown
7:54 PM 70.0 °F - 68.0 °F 93% 30.04 in - Calm Calm - N/A   Unknown
8:54 PM 69.1 °F - 66.9 °F 93% 30.03 in - Calm Calm - N/A   Unknown
9:54 PM 66.9 °F - 66.0 °F 97% 30.02 in - Calm Calm - N/A   Unknown
10:54 PM 66.9 °F - 64.9 °F 93% 30.01 in - Calm Calm - N/A   Unknown